Regional Weather Roundup
Issued by NWS

Home | Current Version | Previous Version | Graphics & Text | Print | Product List | Glossary On
Versions: 1 2 3 4 5 6 7 8 9 10 11 12 13 14 15 16 17 18 19 20 21 22 23 24 25 26 27 28 29 30 31 32 33 34 35 36 37 38 39 40 41 42 43 44 45 46 47 48 49 50
000
ASUS45 KTFX 202304
RWRMT
MONTANA HOURLY WEATHER ROUNDUP
NATIONAL WEATHER SERVICE GREAT FALLS MT
504 PM MDT SAT SEP 20 2014

NOTE: "FAIR" INDICATES FEW OR NO CLOUDS BELOW 12000 FEET WITH NO
SIGNIFICANT WEATHER AND/OR OBSTRUCTIONS TO VISIBILITY.

* THESE STATIONS ARE NOT UNDER NWS QUALITY CONTROL. THEY DO NOT
   REPORT WEATHER SUCH AS PRECIPITATION OR FOG.

MTZ001>007-043-210000-
WEST OF THE DIVIDE
CITY           SKY/WX    TMP DP  RH WIND       PRES   REMARKS
KALISPELL      CLEAR     77  45  32 CALM      30.16F
MISSOULA       CLEAR     81  43  26 NW3       30.14F
BUTTE          CLEAR     75  30  19 CALM      30.25F
MULLAN PASS    CLEAR     66  34  31 VRB3      30.29F
* ESSEX        N/A       74  43  33 W4G9       N/A
* LINCOLN      N/A       80  27  14 SW4G11     N/A
* LOOKOUT PASS N/A       73  35  25 NW4G10     N/A
* POLSON       N/A       79  44  29 SW3        N/A
* RONAN APT    CLEAR     77  43  30 NW6        N/A
* SEELEY LAKE  N/A       79  34  20 SW5G10     N/A
* THOMP F APT  CLEAR     75  41  30 SW5G13     N/A
$$

MTZ008-052>055-210000-
SOUTHWEST MONTANA
CITY           SKY/WX    TMP DP  RH WIND       PRES   REMARKS
BOZEMAN        CLEAR     73  27  18 CALM      30.22F
DILLON         CLEAR     77  37  24 NE6       30.21F
W YELLOWSTONE  CLEAR     72  27  19 S3        30.30F
* THREE FORKS  CLEAR     75  45  34 N/A        N/A
* BOULDER HILL N/A       71  36  28 N8         N/A
* MONIDA PASS  N/A       72  36  27 N4G9       N/A
* RAYNOLDS PAS N/A       75  70  85 NW2G7      N/A
* WHITEHALL    N/A       78  37  23 SE5G10     N/A
* WISE RIVER   N/A       75  23  14 SE11       N/A
$$

MTZ009>010-012-014-046-048-049-054-210000-
EAST SLOPES AND CENTRAL MONTANA
CITY           SKY/WX    TMP DP  RH WIND       PRES   REMARKS
CUT BANK       CLEAR     73  41  32 VRB3      30.22S
GREAT FALLS    CLEAR     73  41  32 E7        30.21F
HELENA         CLEAR     79  39  24 NE5       30.19S
MALMSTROM AFB  CLEAR     72  43  35 NE7       30.22F
* CONRAD       CLEAR     73  45  37 N/A        N/A
* EAST GLACIER N/A       69  44  41 SE9G14     N/A
* MONARCH      N/A       68  39  35 NE4        N/A
* PENDROY      N/A       73  47  40 SE1G9      N/A
* ROGERS PASS  N/A       69  42  38 SW3G8      N/A
* SAINT MARY   N/A       74  36  25 SW5G12     N/A
* SWEET GRASS  N/A       70  40  34 E6         N/A
$$

MTZ011-013-016-021-035-040-045-047-050-051-210000-
NORTH CENTRAL MONTANA
CITY           SKY/WX    TMP DP  RH WIND       PRES   REMARKS
HAVRE          CLEAR     73  36  26 CALM      30.21S
LEWISTOWN      CLEAR     72  43  35 N5        30.25F
* CHESTER      N/A       73  37  27 W4         N/A
* DENTON       N/A       70  44  39 NW4G11     N/A
* GEYSER       N/A       70  45  41 NE6        N/A
* JUDITH GAP   N/A       68  46  45 NE7        N/A
* LOMA         N/A       72  42  34 SE4        N/A
$$

MTZ017>020-022>027-061-062-210000-
NORTHEAST MONTANA
CITY           SKY/WX    TMP DP  RH WIND       PRES   REMARKS
GLASGOW        CLEAR     73  34  24 NW20G25   30.15S
JORDAN         CLEAR     72  36  27 NW20      30.20R
SIDNEY         PTCLDY    72  36  27 NW17G24   30.13R
WOLF POINT     CLEAR     73  36  26 NW17G25   30.13S
* BEAVER HILL  N/A       69  37  31 NW26G35    N/A
* CIRCLE       N/A       71  39  31 NW12G20    N/A
* LINDSAY DVD  N/A       70  35  28 NW20G32    N/A
$$

MTZ028>042-056>058-210000-
SOUTHCENTRAL AND SOUTHEAST MONTANA
CITY           SKY/WX    TMP DP  RH WIND       PRES   REMARKS
BAKER          PTCLDY    72  36  27 NW24G31   30.17R
BILLINGS       FAIR      73  39  29 E9        30.22F
LIVINGSTON     CLEAR     79  34  20 NE7       30.21F
MILES CITY     CLEAR     73  36  26 N14       30.19S
* LAUREL APT   CLEAR     75  39  27 NE7        N/A
* ROUNDUP APT  CLEAR     72  43  35 N/A        N/A
* ALZADA       N/A       72  40  31 W10G15     N/A
* HYSHAM       N/A       71  39  31 N4G11      N/A
* LAME DEER    N/A       68  41  38 N7         N/A
* REED POINT   N/A       75  41  30 E9         N/A
* ROSCOE HILL  N/A       69  34  28 E6G11      N/A
$$

REGIONAL REPORTS...DAKOTAS
CITY           SKY/WX    TMP DP  RH WIND       PRES   REMARKS
WILLISTON      CLEAR     72  34  25 NW24G31   30.08R
DICKINSON      PTCLDY    68  37  32 NW18G29   30.09R
BEACH          N/A       68  32  26 NW22G32   30.15R
CROSBY         CLEAR     66  37  34 NW25G35   30.06R
TIOGA          CLEAR     66  36  33 NW25G36   30.09R
WATFORD CITY   CLEAR     68  34  28 NW20      30.07R
BISMARCK       PTCLDY    72  37  28 NW20G31   30.01R
GRAND FORKS    LGT RAIN  63  52  68 NW21G26   29.81R
FARGO          FAIR      68  52  57 NW15      29.84R
BUFFALO SD     CLEAR     72  34  25 NW29G37   30.10R
RAPID CITY     CLEAR     73  39  29 NW21G31   30.17R
$$

REGIONAL REPORTS...WYOMING/IDAHO/WASHINGTON
CITY           SKY/WX    TMP DP  RH WIND       PRES   REMARKS
GILLETTE       CLEAR     72  37  28 N17       30.25R
SHERIDAN       CLEAR     73  43  34 N12       30.25S
CODY           CLEAR    N/A N/A N/A N/A        N/A
YELLOWSTONE LA CLEAR     63  36  37 S3        30.40F
SALMON         CLEAR     79  39  24 CALM      30.09F
MULLAN PASS    CLEAR     66  34  31 VRB3      30.29S
SAND POINT     CLEAR     77  50  39 SE5       30.12F
SPOKANE        CLEAR     81  46  29 N10       30.10F

$$



USA.gov is the U.S. government's official web portal to all federal, state and local government web resources and services.